GFSSW_250_spd_135.txt.gz
Wind_Speed
41 44 49 51 55 59 61 62 63 63 64 63 65 64 59 57 52 52 57 63 76 85 97 98 93 88 87 80 78 78 73 64 66 69 68 58 53 51 43 44 39 38 44 59 60
44 45 50 52 56 60 62 63 63 66 69 73 73 70 67 62 60 56 51 63 72 82 85 94 103 100 94 86 82 78 75 71 76 74 70 62 58 54 46 45 42 39 42 50 59
50 51 57 60 66 68 68 68 70 75 78 78 76 76 73 67 64 58 60 64 69 73 83 85 100 104 101 96 92 88 76 79 80 77 75 67 62 57 50 46 44 43 38 44 50
56 56 60 63 67 70 73 77 80 83 83 83 79 80 75 69 65 63 64 63 65 69 73 85 90 105 106 104 102 94 86 82 84 82 79 72 68 61 55 51 45 42 37 33 35
56 59 61 64 70 75 81 84 86 90 91 90 86 81 77 72 74 64 62 65 65 67 71 75 88 98 109 115 113 96 94 91 88 85 82 78 71 67 58 55 49 44 40 36 32
61 66 67 70 76 82 84 88 92 97 95 95 89 82 78 73 72 68 57 62 64 68 72 76 80 95 105 119 116 113 103 97 91 88 85 81 75 72 63 59 52 48 46 40 36
64 68 72 77 82 83 87 93 94 98 99 97 92 84 77 73 66 67 61 57 63 67 72 77 81 88 98 109 121 120 113 109 100 91 87 87 79 70 70 63 57 52 50 45 42
72 74 77 83 86 86 88 93 101 102 100 99 96 87 75 76 67 64 59 59 60 67 74 78 81 85 91 101 114 126 123 114 100 98 92 91 78 79 78 70 65 58 55 50 45
75 79 83 84 89 93 96 98 101 101 106 101 99 89 78 73 68 64 60 58 61 65 72 79 80 80 93 99 110 123 124 115 115 104 100 95 83 84 83 77 70 64 59 56 52
77 83 89 93 94 99 102 105 105 107 109 103 96 88 80 75 68 66 60 55 58 64 71 77 75 78 87 96 101 107 121 124 120 112 106 99 92 89 87 83 77 71 66 62 57
83 90 97 99 101 104 108 112 113 109 112 103 96 83 82 74 68 64 59 56 57 61 71 79 75 69 77 90 97 110 121 129 126 123 116 105 102 93 92 88 83 78 72 67 63
92 97 99 102 107 111 113 118 118 111 107 100 93 86 82 75 65 61 58 55 58 63 69 76 66 71 85 87 96 108 113 123 130 131 124 112 105 99 98 92 88 84 78 73 69
95 98 105 110 116 118 121 122 119 113 109 102 88 85 79 73 63 56 56 55 60 63 72 70 59 75 77 80 87 99 105 114 127 133 130 118 113 106 100 97 93 89 84 79 72
98 101 105 116 120 118 120 121 121 117 106 97 86 80 75 70 65 58 57 56 61 66 71 58 61 72 74 73 80 91 98 112 130 136 134 125 111 110 105 99 96 91 87 81 76
101 105 112 114 121 123 124 125 119 115 108 92 83 76 70 67 65 60 61 58 62 67 68 55 66 71 77 67 78 84 98 111 131 138 137 134 125 111 112 106 98 93 89 86 82
101 107 111 120 121 128 127 124 121 112 108 95 81 75 70 64 65 61 61 61 61 65 61 61 69 69 61 65 81 91 103 112 127 140 147 137 129 122 118 102 94 96 93 88 87
103 108 116 124 129 130 129 128 124 115 108 92 81 75 70 66 60 58 58 59 60 59 62 66 66 60 64 65 83 95 103 114 128 141 141 136 135 122 113 107 104 97 94 91 90
108 116 122 125 134 139 137 130 122 113 107 92 85 77 70 63 56 50 51 56 57 59 59 62 62 62 64 65 75 87 100 109 120 135 144 142 142 120 116 111 105 103 98 97 96
112 117 122 130 138 139 136 130 121 113 104 92 85 76 69 60 52 46 47 50 53 54 55 62 61 61 62 67 78 86 103 106 115 136 147 144 134 128 121 118 111 106 101 96 94
117 123 129 137 142 145 135 132 121 111 100 90 83 74 65 57 47 45 44 43 46 51 54 59 59 56 61 69 77 83 90 105 112 131 140 140 137 129 126 119 113 108 103 99 97
115 125 135 139 141 146 143 134 113 104 98 89 79 68 61 54 46 42 40 40 42 46 49 52 57 59 63 69 72 84 91 104 113 127 138 145 135 130 129 122 118 110 107 107 103
122 131 136 146 150 152 140 127 110 99 93 84 74 60 53 48 46 41 37 40 40 42 45 51 56 57 59 70 78 84 89 98 106 116 131 137 135 138 133 124 121 115 115 114 109
130 135 142 148 154 151 142 121 103 95 86 77 67 56 45 44 41 38 35 36 39 40 43 48 55 57 65 71 76 84 91 99 107 118 132 139 139 141 135 128 123 120 118 115 109
130 137 144 153 153 149 135 110 100 94 81 72 63 50 42 39 38 33 33 33 36 39 42 45 55 61 69 79 85 91 92 97 103 112 125 136 139 141 136 131 126 123 120 115 111
133 140 148 157 147 148 128 112 103 92 76 62 56 48 38 35 35 32 31 31 32 37 41 48 56 60 66 74 81 89 93 100 105 106 118 128 136 141 136 132 129 124 122 117 112
143 146 150 153 144 146 119 115 102 89 76 61 53 45 37 34 33 30 32 28 30 36 41 50 55 59 64 72 82 89 94 102 102 106 108 120 131 139 138 133 132 126 124 120 118
142 149 151 154 144 138 117 109 96 82 70 59 50 45 39 37 32 31 29 28 28 35 40 49 51 56 63 70 79 86 92 94 98 102 103 113 125 142 142 139 136 134 128 125 122

GFSSW_250_spd_138.txt.gz
Wind_Speed
37 38 42 44 45 47 52 58 58 59 62 65 67 72 70 71 70 64 59 57 54 59 60 71 76 90 96 90 89 84 78 71 70 71 74 73 65 60 59 53 50 48 49 49 63
40 44 47 50 54 55 59 63 65 64 68 71 72 75 74 74 73 73 65 63 59 61 60 65 75 84 96 98 97 92 84 77 83 79 77 77 70 66 63 58 52 50 48 43 50
39 44 50 53 58 63 67 67 68 71 73 73 78 80 80 78 77 75 73 68 64 61 61 62 71 80 87 101 105 100 86 87 87 88 83 79 74 71 66 64 58 53 50 48 49
46 50 53 55 61 67 72 76 77 78 77 78 82 83 84 87 87 75 77 72 66 61 61 62 66 76 83 88 104 110 96 93 92 93 91 82 81 76 70 69 65 57 51 48 49
49 50 55 57 66 71 75 79 83 90 87 87 89 88 87 91 93 92 77 73 67 63 63 64 66 71 81 87 98 106 106 102 99 96 91 89 83 82 74 74 70 60 56 50 49
50 52 57 63 67 70 75 82 91 91 91 93 94 92 93 93 96 93 82 69 66 62 64 64 67 70 76 87 93 100 114 111 106 101 94 90 87 87 77 77 73 64 60 55 49
55 55 57 64 69 72 76 82 88 95 97 97 99 95 95 100 96 87 82 70 59 60 61 64 69 71 73 84 90 98 110 117 107 104 95 95 91 85 84 80 78 70 63 59 53
53 55 59 68 72 74 78 82 95 96 104 105 101 94 93 98 94 85 78 67 56 56 58 62 66 69 72 81 90 98 108 114 109 109 103 105 83 87 89 85 82 75 69 64 56
58 60 67 75 79 81 83 90 93 97 108 110 104 103 99 97 90 84 78 63 57 54 55 61 63 67 72 80 89 97 98 100 108 115 113 113 93 95 93 90 86 81 74 68 61
63 68 72 79 83 87 87 94 99 106 111 109 102 104 104 96 83 84 71 60 56 55 55 60 61 65 69 75 77 81 91 101 106 119 123 119 105 105 100 95 91 86 79 73 65
69 72 77 80 89 95 98 103 110 113 113 108 106 105 110 95 82 79 67 57 55 55 55 57 57 55 65 77 83 95 104 104 109 119 130 124 113 109 106 101 95 90 83 77 70
72 76 81 86 92 99 103 111 115 118 117 109 108 108 100 89 76 68 64 56 51 52 55 57 47 62 74 80 83 92 100 102 107 117 132 127 120 112 111 101 96 95 88 82 75
76 77 85 92 95 99 109 114 120 125 117 110 112 108 94 81 72 66 59 57 54 54 57 53 55 67 72 78 80 85 93 92 100 118 132 134 129 125 112 104 100 97 92 87 80
79 85 94 97 97 103 112 119 127 129 123 118 117 100 82 74 69 64 61 56 57 57 57 52 64 68 76 76 80 83 84 93 102 113 129 136 134 127 121 114 105 97 97 90 85
84 85 98 100 99 111 118 125 128 126 122 121 115 90 75 71 66 61 61 56 58 59 58 58 65 70 73 70 84 78 91 94 102 112 129 135 143 128 128 121 113 102 97 92 89
87 90 93 97 100 112 121 125 129 125 121 120 107 89 81 73 67 62 60 56 57 60 62 61 66 67 68 74 82 77 88 91 101 114 133 131 143 135 132 118 110 102 100 97 94
90 92 97 98 106 114 122 129 131 125 124 120 100 90 83 75 66 58 56 52 52 55 61 61 65 63 65 71 80 75 84 88 97 113 125 130 142 135 130 121 116 111 103 102 98
92 98 104 105 112 119 126 134 132 128 121 115 98 91 84 72 62 54 51 48 48 49 52 56 56 65 68 68 75 77 83 87 86 98 112 118 133 125 129 129 123 120 109 106 103
93 98 105 105 112 122 132 138 134 127 123 108 96 90 79 67 57 50 46 45 45 47 47 51 54 61 67 70 80 78 79 77 88 91 106 119 127 124 134 134 130 127 117 111 105
99 104 107 113 119 130 137 145 135 127 120 105 94 88 76 62 51 47 46 41 43 44 47 42 46 57 60 65 69 73 79 84 90 94 107 120 122 124 134 136 134 130 122 112 107
99 102 104 115 128 135 142 144 134 131 117 104 92 83 73 58 49 45 44 42 39 42 42 38 44 55 57 63 70 78 79 81 88 91 100 112 117 115 132 139 139 131 122 112 108
101 106 118 122 130 138 145 141 135 126 113 101 86 74 67 59 49 45 45 41 39 39 38 36 45 54 57 66 74 79 81 83 87 90 95 104 105 115 126 140 139 131 123 117 116
105 112 120 124 131 139 144 147 139 129 114 100 84 70 58 57 50 47 47 44 39 36 37 35 45 50 54 65 76 80 83 82 84 87 90 96 101 114 121 134 139 134 129 122 119
108 114 119 127 134 142 150 151 138 130 112 100 84 69 58 51 49 47 47 44 38 33 36 36 43 48 53 62 71 76 78 79 78 78 90 84 94 103 117 134 138 137 131 127 122
111 117 125 134 135 142 148 148 136 129 111 100 83 68 57 52 48 43 44 41 36 32 34 36 41 46 52 59 64 68 73 78 73 80 84 88 94 103 114 129 142 140 136 130 127
113 123 128 134 137 142 151 138 138 125 106 95 80 67 59 52 45 41 40 37 33 30 33 34 38 43 50 56 62 64 72 73 72 78 85 93 91 103 107 125 138 141 137 132 129
115 122 131 135 140 146 148 136 132 120 103 91 78 66 58 52 44 39 37 31 32 27 31 33 36 41 47 50 58 66 70 70 72 80 89 90 93 101 113 122 140 146 142 137 132

GFSSW_250_spd_144.txt.gz
Wind_Speed
24 26 29 32 32 33 33 35 38 39 41 45 48 54 58 62 65 70 69 74 80 83 85 87 84 81 72 67 61 58 62 60 76 92 89 95 89 89 86 79 77 72 67 63 68
22 27 31 33 36 38 40 42 48 49 51 56 55 59 62 64 68 74 77 82 85 90 92 93 96 94 84 72 58 55 61 55 74 89 99 102 96 93 88 85 80 76 72 66 61
32 32 34 38 40 42 45 49 52 53 58 64 65 64 68 71 76 79 85 90 95 98 101 101 101 92 83 73 65 59 49 65 74 85 101 107 102 99 91 87 85 83 77 72 65
35 38 39 41 44 45 50 55 57 63 65 65 67 70 73 78 89 88 90 96 100 104 108 102 99 94 80 73 71 64 56 67 74 85 95 107 111 102 92 88 91 87 82 75 70
39 42 44 46 49 49 54 56 62 63 65 64 71 75 76 82 93 102 101 104 106 110 111 106 98 88 78 69 68 63 61 68 77 86 93 107 111 107 98 95 97 93 87 80 76
43 44 48 50 54 54 57 60 64 65 64 70 72 79 82 90 94 103 109 113 114 113 110 101 96 84 73 67 65 66 66 72 80 86 96 100 110 120 102 99 99 97 92 86 80
45 49 52 55 58 57 61 62 67 68 70 71 76 83 89 97 104 111 115 117 116 116 107 98 91 76 66 63 63 65 67 76 82 86 95 103 113 115 109 106 102 101 97 90 85
47 51 56 57 58 60 61 65 70 72 74 78 84 89 94 101 109 113 115 115 113 112 101 89 78 68 59 60 61 66 69 76 80 89 99 111 104 110 117 114 105 105 103 96 89
49 53 57 60 62 61 65 67 72 75 77 84 92 97 102 106 114 114 118 116 110 101 88 78 66 58 57 57 60 66 68 73 87 90 99 107 98 109 120 122 112 108 107 101 94
51 55 58 62 66 66 68 71 75 76 82 88 95 100 105 116 117 118 120 116 107 94 79 68 59 56 58 59 58 67 71 77 81 92 100 107 101 112 120 127 120 114 112 106 99
53 55 59 63 68 70 71 73 77 79 85 95 98 106 114 122 122 124 123 113 102 84 73 65 58 56 57 59 58 65 70 78 81 90 101 106 110 116 122 131 125 117 112 108 102
54 58 60 64 70 75 77 78 81 86 88 94 103 109 116 124 123 124 121 107 94 79 70 63 57 56 55 58 58 63 69 74 82 92 103 108 113 115 120 123 127 122 118 111 109
57 60 62 65 70 75 79 82 86 90 93 98 106 114 120 127 133 126 119 106 90 76 66 57 53 54 56 58 59 62 69 77 84 96 105 109 112 114 118 121 129 126 119 114 112
58 62 65 67 72 75 79 82 86 90 97 102 109 118 125 134 134 128 114 100 83 72 61 53 50 50 54 59 62 63 69 77 83 95 101 109 107 113 119 119 125 128 123 116 110
62 65 68 71 74 77 81 84 87 95 101 105 113 121 130 136 139 129 110 97 79 68 58 51 47 46 51 55 59 64 69 77 85 95 102 106 107 109 116 120 118 123 121 118 114
65 68 69 74 77 77 81 85 88 96 101 109 119 125 132 141 139 124 107 91 77 64 54 51 45 43 45 50 55 64 68 74 85 95 101 99 102 109 112 112 113 119 125 123 116
69 71 72 75 77 77 82 85 92 97 106 113 121 125 137 143 138 125 108 87 74 61 51 48 46 41 41 44 50 57 64 71 79 95 89 101 104 103 110 113 116 117 126 128 124
68 71 73 76 77 76 82 90 96 100 107 116 121 129 136 135 139 128 110 87 73 59 49 48 48 44 38 41 46 52 60 68 77 82 88 104 99 97 108 114 117 118 121 131 128
66 71 73 77 77 77 85 95 100 103 109 118 121 129 135 143 139 123 110 89 74 61 47 43 49 47 41 38 40 46 53 67 69 76 85 95 89 95 106 109 112 114 118 125 129
65 70 74 77 76 80 88 96 101 107 114 120 126 133 144 141 135 121 110 89 74 62 49 41 44 45 44 38 32 39 51 62 68 79 79 85 86 89 103 108 111 117 121 123 130
64 68 74 77 78 82 88 97 103 109 116 120 128 137 145 152 135 123 103 88 71 60 53 43 39 42 43 37 32 35 49 52 62 72 74 79 78 89 100 111 118 121 121 125 130
63 68 73 75 79 83 90 97 102 112 116 121 130 137 146 150 137 126 101 88 72 59 52 45 40 38 41 33 35 34 41 51 52 65 74 75 73 95 101 112 115 118 123 123 126
67 69 72 76 79 85 92 99 105 112 115 120 130 136 145 150 133 126 100 89 75 61 52 46 40 36 38 33 33 34 37 46 51 56 69 70 80 95 98 107 112 115 118 123 123
70 72 73 77 81 87 94 101 107 111 115 122 130 136 143 144 131 125 101 89 75 64 52 46 45 38 38 31 31 32 35 38 45 50 57 63 81 92 98 105 108 113 115 119 122
72 73 76 80 84 89 95 102 108 112 118 124 131 138 143 141 131 124 103 90 75 66 54 45 45 40 36 29 29 27 30 31 39 44 45 63 80 92 94 100 104 107 111 114 117
72 75 76 81 86 91 98 104 110 115 121 125 131 139 148 143 131 122 103 89 74 65 54 41 43 39 35 26 26 27 26 29 36 42 54 69 82 84 88 94 99 100 105 110 112
74 76 78 83 88 92 100 105 109 114 121 128 133 140 143 146 130 123 104 90 74 65 58 44 40 40 33 26 26 26 21 29 39 45 53 65 78 81 85 89 91 93 99 106 109

GFSSW_250_spd_147.txt.gz
Wind_Speed
23 23 26 27 29 31 32 33 34 36 40 42 45 47 50 52 54 61 58 60 65 72 77 80 86 91 93 93 95 86 63 45 48 54 64 76 84 95 97 88 89 85 80 77 72
26 30 34 33 35 36 37 38 40 43 46 48 49 51 53 56 61 63 66 70 77 80 83 87 92 94 94 96 95 86 77 57 65 63 67 76 85 94 102 95 89 89 86 80 78
31 34 34 34 35 40 42 45 46 46 49 49 51 58 61 63 65 69 73 78 84 87 91 97 100 99 97 95 96 91 62 70 62 67 75 76 84 93 99 100 94 94 90 86 81
35 38 39 39 41 46 48 48 48 50 50 52 55 58 64 64 76 73 78 83 90 96 98 101 104 107 104 101 96 87 69 68 67 76 82 77 87 90 98 97 103 97 95 90 86
38 41 41 43 44 47 47 48 51 52 56 58 60 64 66 66 77 85 87 88 95 100 105 108 108 104 100 97 95 87 75 67 70 80 90 86 84 94 97 95 106 103 97 95 91
41 42 43 45 45 48 51 52 56 57 58 61 66 68 70 76 81 86 94 97 104 105 109 115 109 102 98 94 91 83 74 66 69 80 91 94 90 102 91 93 104 109 101 100 98
41 43 45 47 46 49 52 54 58 60 61 66 68 73 73 79 86 92 97 103 109 112 119 118 110 101 91 86 83 77 70 66 66 81 89 99 96 91 93 99 104 112 107 103 101
41 43 45 47 47 50 54 57 60 63 65 69 73 76 76 82 91 95 105 110 115 122 124 116 101 92 86 79 72 70 64 63 66 81 92 105 96 91 100 100 104 112 115 108 104
41 44 45 49 50 52 57 58 61 65 69 73 76 79 80 85 90 100 106 114 118 125 122 105 93 84 76 71 64 63 61 58 64 78 93 102 94 94 104 104 104 109 117 114 109
45 46 48 52 55 54 60 62 64 67 70 74 74 79 83 90 97 105 113 117 126 129 114 99 87 73 67 62 60 59 55 54 59 73 90 101 97 105 111 112 110 112 118 120 113
47 50 51 55 58 59 62 65 67 69 71 73 76 80 87 94 102 111 120 123 131 129 111 97 82 65 59 55 56 54 54 57 62 68 83 101 100 111 114 113 110 110 113 121 117
53 54 56 58 61 63 67 70 72 74 72 75 78 87 94 99 108 114 120 126 134 117 109 91 73 60 52 49 51 53 54 57 64 70 78 97 99 105 113 111 110 111 109 117 121
57 57 59 62 64 67 70 72 74 76 76 79 83 90 99 103 112 116 123 134 133 120 103 83 66 54 47 44 45 50 53 59 63 66 74 91 98 103 109 114 113 113 110 112 120
58 59 63 66 67 71 72 72 76 78 79 82 85 94 101 107 114 122 126 135 132 118 95 79 63 50 44 38 40 47 50 57 61 67 75 83 93 103 109 112 114 112 111 108 118
58 62 65 68 68 70 72 75 77 80 82 84 88 95 102 109 114 123 127 134 129 114 89 77 61 48 40 34 37 44 45 54 60 69 73 78 88 96 106 110 110 113 112 109 115
59 63 65 67 69 71 70 74 77 81 81 85 89 97 103 110 116 122 129 136 134 117 91 74 59 47 39 32 34 39 44 51 59 67 64 82 87 98 102 103 109 113 113 112 112
55 57 62 65 69 70 71 74 77 79 82 86 93 100 104 109 116 122 131 137 134 117 93 75 58 49 41 34 33 36 41 47 57 61 65 80 80 90 99 101 109 114 115 116 115
57 60 65 67 69 67 70 74 77 78 82 89 94 100 106 109 117 124 132 136 134 119 96 77 60 50 42 37 33 33 37 46 52 57 68 76 70 85 99 102 106 112 115 118 118
58 67 68 70 68 65 71 76 77 76 84 90 95 99 105 112 118 126 130 134 136 120 99 80 62 51 43 38 33 32 38 44 46 54 64 69 65 77 94 103 107 113 116 118 119
58 65 70 69 64 66 73 76 77 79 86 91 95 102 107 115 122 126 131 135 141 125 99 82 66 55 45 36 36 32 36 42 44 52 57 61 68 73 91 104 107 111 115 116 118
59 63 67 64 66 70 74 75 76 81 87 93 97 102 109 117 122 127 134 138 142 126 99 81 67 59 47 35 33 34 34 42 47 50 49 63 72 77 90 103 104 108 111 114 116
60 62 63 65 68 71 73 75 78 84 90 94 99 105 114 120 122 129 134 141 144 125 103 83 65 57 53 39 34 32 32 37 43 42 48 58 70 83 93 102 105 104 109 113 115
62 65 68 68 67 71 72 76 80 86 91 94 101 108 115 120 122 129 136 140 141 124 103 85 65 54 53 38 33 31 28 29 38 35 44 52 73 86 92 100 104 106 106 109 113
66 67 65 65 67 69 71 77 84 86 92 97 105 111 115 119 125 131 136 140 140 120 102 86 68 55 52 38 33 29 26 27 29 36 42 57 77 90 92 98 103 105 105 107 111
67 64 63 64 66 70 72 79 82 88 94 99 106 111 116 120 126 135 140 144 135 117 102 85 69 58 49 46 33 27 26 24 29 36 47 61 72 85 91 99 101 104 104 104 108
66 63 59 65 68 69 75 79 85 91 97 101 106 112 117 123 128 134 141 147 134 116 100 85 69 60 55 42 33 27 22 22 30 36 51 58 71 80 89 95 92 99 103 101 104
63 60 60 65 67 70 79 83 89 93 102 108 109 112 117 124 130 137 143 145 132 114 98 83 67 56 54 43 30 26 20 23 30 38 51 56 69 79 86 89 89 94 99 99 100